DAL382 KLAX-KDCA

Flight info

Callsign DAL382
Flight time N/A
Altitude 33000
Route ORCKA5 LAS J146 DVC PUB HLC RBA SPI VHP J80 BOWRR OTMAN J30 BUCKO FRDMM6
Aircraft B739/M-SDE2E3FGHIRWXY/LB1

Departure

Time 2026-05-04 20:14
Airport Los Angeles International Airport (KLAX)

Arrival

Time N/A
Airport Ronald Reagan Washington National Airport (KDCA)
Time Latitude Longitude Altitude Speed Heading
2026-05-04 19:41 33.94709 -118.40717 125 ft 0 kts 179°
2026-05-04 19:50 33.94710 -118.40717 125 ft 0 kts 179°
2026-05-04 19:53 33.94715 -118.40717 120 ft 4 kts 178°
2026-05-04 19:53 33.94741 -118.40721 121 ft 4 kts 157°
2026-05-04 19:53 33.94761 -118.40738 122 ft 4 kts 118°
2026-05-04 19:54 33.94766 -118.40760 123 ft 0 kts 83°
2026-05-04 19:55 33.94766 -118.40761 123 ft 0 kts 83°
2026-05-04 20:04 33.94766 -118.40762 124 ft 0 kts 83°
2026-05-04 20:07 33.94767 -118.40748 129 ft 4 kts 82°
2026-05-04 20:07 33.94772 -118.40704 124 ft 7 kts 82°
2026-05-04 20:07 33.94780 -118.40636 124 ft 7 kts 76°
2026-05-04 20:08 33.94815 -118.40600 120 ft 7 kts
2026-05-04 20:08 33.94859 -118.40585 124 ft 7 kts 52°
2026-05-04 20:08 33.94872 -118.40530 120 ft 7 kts 81°
2026-05-04 20:08 33.94879 -118.40467 123 ft 9 kts 83°
2026-05-04 20:09 33.94887 -118.40388 124 ft 10 kts 82°
2026-05-04 20:09 33.94895 -118.40309 124 ft 9 kts 83°
2026-05-04 20:09 33.94904 -118.40219 124 ft 14 kts 83°
2026-05-04 20:09 33.94916 -118.40096 124 ft 15 kts 83°
2026-05-04 20:10 33.94928 -118.39983 124 ft 11 kts 82°
2026-05-04 20:10 33.94943 -118.39934 124 ft 1 kts 51°
2026-05-04 20:10 33.94944 -118.39933 124 ft 0 kts 50°
2026-05-04 20:11 33.94944 -118.39934 124 ft 0 kts 50°
2026-05-04 20:11 33.94945 -118.39932 124 ft 1 kts 50°
2026-05-04 20:11 33.94970 -118.39916 124 ft 6 kts 15°
2026-05-04 20:12 33.95008 -118.39915 122 ft 6 kts 350°
2026-05-04 20:12 33.95037 -118.39942 122 ft 6 kts 294°
2026-05-04 20:12 33.95039 -118.39980 122 ft 0 kts 265°
2026-05-04 20:12 33.95039 -118.39979 122 ft 0 kts 265°
2026-05-04 20:13 33.95036 -118.40011 123 ft 22 kts 261°
2026-05-04 20:13 33.94989 -118.40471 120 ft 88 kts 263°
2026-05-04 20:13 33.94891 -118.41429 125 ft 141 kts 263°
2026-05-04 20:14 33.94759 -118.42716 400 ft 159 kts 263°
2026-05-04 20:14 33.94645 -118.44103 867 ft 168 kts 264°
2026-05-04 20:14 33.94537 -118.45498 1630 ft 166 kts 262°
2026-05-04 20:14 33.94402 -118.46876 2216 ft 172 kts 262°
2026-05-04 20:15 33.94239 -118.48391 2434 ft 195 kts 262°
2026-05-04 20:15 33.94036 -118.50083 2668 ft 212 kts 261°
2026-05-04 20:15 33.93454 -118.51775 2909 ft 232 kts 228°
2026-05-04 20:15 33.92020 -118.52768 3324 ft 246 kts 198°
2026-05-04 20:16 33.90252 -118.52823 3827 ft 264 kts 170°
2026-05-04 20:16 33.88577 -118.51896 4597 ft 272 kts 143°
2026-05-04 20:16 33.87407 -118.50072 5188 ft 282 kts 112°
2026-05-04 20:16 33.87177 -118.47785 5874 ft 281 kts 78°
2026-05-04 20:17 33.87972 -118.45675 6451 ft 280 kts 44°
2026-05-04 20:17 33.89574 -118.44438 7006 ft 274 kts 11°
2026-05-04 20:17 33.91449 -118.43975 7540 ft 278 kts
2026-05-04 20:17 33.93246 -118.43035 8070 ft 292 kts 38°
2026-05-04 20:18 33.94571 -118.41161 8659 ft 299 kts 53°
2026-05-04 20:18 33.95171 -118.40096 8974 ft 301 kts 54°
2026-05-04 20:18 33.95610 -118.39304 9209 ft 303 kts 54°
2026-05-04 20:18 33.96801 -118.37151 9863 ft 307 kts 54°
2026-05-04 20:19 33.97982 -118.35036 10676 ft 300 kts 54°
2026-05-04 20:19 33.99136 -118.32986 11587 ft 294 kts 54°
2026-05-04 20:19 34.00282 -118.30956 12410 ft 293 kts 54°
2026-05-04 20:19 34.01437 -118.28916 13088 ft 295 kts 54°
2026-05-04 20:20 34.02607 -118.26855 13547 ft 307 kts 55°
2026-05-04 20:20 34.03868 -118.24632 13697 ft 334 kts 55°
2026-05-04 20:20 34.05230 -118.22231 13863 ft 360 kts 55°
2026-05-04 20:20 34.06692 -118.19649 14014 ft 384 kts 55°
2026-05-04 20:21 34.08240 -118.16912 14250 ft 403 kts 55°
2026-05-04 20:21 34.09837 -118.14088 14605 ft 411 kts 55°
2026-05-04 20:21 34.13082 -118.08341 15456 ft 421 kts 55°
2026-05-04 20:22 34.14729 -118.05420 15858 ft 425 kts 56°
2026-05-04 20:22 34.16407 -118.02442 16197 ft 432 kts 56°
2026-05-04 20:22 34.18104 -117.99427 16623 ft 436 kts 56°
2026-05-04 20:22 34.19815 -117.96382 17050 ft 440 kts 56°
2026-05-04 20:23 34.21549 -117.93311 17473 ft 445 kts 55°
2026-05-04 20:23 34.23291 -117.90199 17867 ft 449 kts 56°
2026-05-04 20:23 34.25049 -117.87050 18239 ft 455 kts 56°
2026-05-04 20:23 34.26835 -117.83868 18616 ft 458 kts 56°
2026-05-04 20:24 34.28627 -117.80675 18976 ft 461 kts 56°
2026-05-04 20:24 34.30432 -117.77450 19308 ft 464 kts 56°
2026-05-04 20:24 34.32246 -117.74196 19650 ft 467 kts 56°
2026-05-04 20:24 34.34009 -117.70871 19836 ft 472 kts 58°
2026-05-04 20:25 34.35835 -117.67545 20139 ft 475 kts 54°
2026-05-04 20:25 34.37785 -117.64313 20520 ft 475 kts 53°
2026-05-04 20:25 34.39744 -117.61132 20736 ft 480 kts 53°
2026-05-04 20:25 34.41775 -117.57827 20951 ft 484 kts 53°
2026-05-04 20:26 34.43751 -117.54583 21250 ft 487 kts 53°
2026-05-04 20:26 34.45751 -117.51266 21643 ft 487 kts 53°
2026-05-04 20:26 34.47747 -117.47931 21931 ft 490 kts 53°
2026-05-04 20:26 34.49749 -117.44566 22127 ft 494 kts 54°
2026-05-04 20:27 34.51766 -117.41167 22379 ft 497 kts 54°
2026-05-04 20:27 34.53790 -117.37752 22648 ft 499 kts 54°
2026-05-04 20:27 34.55823 -117.34319 22901 ft 502 kts 54°
2026-05-04 20:27 34.57862 -117.30875 23138 ft 504 kts 54°
2026-05-04 20:28 34.59915 -117.27405 23381 ft 507 kts 54°
2026-05-04 20:28 34.61276 -117.25103 23542 ft 508 kts 54°
2026-05-04 20:28 34.63342 -117.21606 23715 ft 511 kts 54°
2026-05-04 20:28 34.65417 -117.18092 23806 ft 514 kts 54°
2026-05-04 20:29 34.67507 -117.14545 23904 ft 518 kts 54°
2026-05-04 20:29 34.69611 -117.10976 24048 ft 521 kts 54°
2026-05-04 20:29 34.71724 -117.07385 24214 ft 523 kts 54°
2026-05-04 20:29 34.73842 -117.03783 24407 ft 525 kts 54°
2026-05-04 20:30 34.75966 -117.00166 24555 ft 527 kts 54°
2026-05-04 20:30 34.78099 -116.96531 24705 ft 529 kts 54°
2026-05-04 20:30 34.80242 -116.92873 24850 ft 532 kts 54°
2026-05-04 20:30 34.82395 -116.89195 24984 ft 534 kts 54°
2026-05-04 20:31 34.84551 -116.85509 25230 ft 533 kts 54°
2026-05-04 20:31 34.86704 -116.81823 25374 ft 536 kts 54°
2026-05-04 20:31 34.88839 -116.78166 25471 ft 539 kts 54°
2026-05-04 20:31 34.91013 -116.74438 25616 ft 541 kts 54°
2026-05-04 20:32 34.93298 -116.70792 25760 ft 542 kts 48°
2026-05-04 20:32 34.95811 -116.67363 25902 ft 543 kts 46°
2026-05-04 20:32 34.98413 -116.64000 26029 ft 545 kts 45°
2026-05-04 20:32 35.01051 -116.60648 26144 ft 548 kts 45°
2026-05-04 20:33 35.03685 -116.57289 26264 ft 550 kts 45°
2026-05-04 20:33 35.06322 -116.53887 26415 ft 551 kts 45°
2026-05-04 20:33 35.08941 -116.50464 26639 ft 551 kts 46°
2026-05-04 20:33 35.11545 -116.47029 26829 ft 552 kts 46°
2026-05-04 20:34 35.14157 -116.43568 26988 ft 554 kts 46°
2026-05-04 20:34 35.16768 -116.40098 27175 ft 556 kts 46°
2026-05-04 20:34 35.19379 -116.36624 27551 ft 552 kts 46°
2026-05-04 20:34 35.21973 -116.33173 27916 ft 550 kts 46°
2026-05-04 20:35 35.24562 -116.29729 28075 ft 552 kts 46°
2026-05-04 20:35 35.27154 -116.26280 28143 ft 556 kts 46°